C/2009 K4 ( Gibbs )

Japanese version
Home page
Updated on March 17, 2010

---------------------------------------------------------------------

* Profile

Discovery Date May 27, 2009
Magnitude 17.0 mag
Discoverer A. R. Gibbs (Catalina)

* Pictures

* Orbital Elements

Epoch 2009 June 18.0 TT = JDT 2455000.5
T 2009 June 19.37894 TT                                 MPC
q   1.5490829            (2000.0)            P               Q
z  +0.0235930      Peri.  127.46772     -0.85313329     -0.43593790
 +/-0.0000000      Node    30.12010     +0.05670379     -0.62353734
e   0.9634526      Incl.   34.82458     +0.51860223     -0.64896790

* Finding Charts

* Magnitudes Graph

        m1 = 11.5 + 5 log d + 10.0 log r

---------------------------------------------------------------------

The orbital elements are published on M.P.E.C. 2009-P12.
The charts are made with StellaNavigator Ver.8 (AstroArts).
The magnitudes graphs are made with Comet for Windows.

---------------------------------------------------------------------

Copyright(C) Seiichi Yoshida (comet@aerith.net). All rights reserved.